When you browse on this site, cookies collect data to enhance your experience and personalize the content and advertising you see.
Visit our Privacy Policy to learn more. By continuing to use the site, you agree to this use of cookies and data.
  • In Latvia
  • List of Countries
  • For 7 days
  • Water Temperature
  • Weather Map
  • Weather Widgets
  • user-avatar
    Login

    Hourly Weather Kalat

    Today, 27 January, Monday

    Time Temperature Precipitation Wind Pressure Humidity
    00:00 -24°C° 0 mm 2 mps 460 mmHg 61%
    01:00 -23°C° 0 mm 2 mps 460 mmHg 61%
    02:00 -23°C° 0 mm 2 mps 460 mmHg 60%
    03:00 -24°C° 0 mm 2 mps 460 mmHg 60%
    04:00 -24°C° 0 mm 2 mps 459 mmHg 60%
    05:00 -24°C° 0 mm 2 mps 459 mmHg 59%
    06:00 -21°C° 0 mm 1 mps 459 mmHg 57%
    07:00 -21°C° 0 mm 1 mps 459 mmHg 55%
    08:00 -21°C° 0 mm 1 mps 460 mmHg 53%
    09:00 -19°C° 0 mm 1 mps 461 mmHg 53%
    10:00 -16°C° 0 mm 1 mps 463 mmHg 52%
    11:00 -13°C° 0 mm 1 mps 465 mmHg 48%
    12:00 -12°C° 0 mm 1 mps 466 mmHg 51%
    13:00 -11°C° 0 mm 1 mps 466 mmHg 54%
    14:00 -11°C° 0 mm 1 mps 466 mmHg 57%
    15:00 -12°C° 0 mm 1 mps 465 mmHg 68%
    16:00 -14°C° 0 mm 1 mps 464 mmHg 78%
    17:00 -15°C° 0 mm 1 mps 464 mmHg 89%
    18:00 -16°C° 0 mm 1 mps 463 mmHg 91%
    19:00 -18°C° 0 mm 1 mps 462 mmHg 93%
    20:00 -19°C° 0 mm 1 mps 461 mmHg 96%
    21:00 -20°C° 0 mm 1 mps 461 mmHg 96%
    22:00 -21°C° 0 mm 0 mps 460 mmHg 96%
    23:00 -21°C° 0 mm 0 mps 460 mmHg 97%

    Tomorrow, 28 January, Tuesday

    Time Temperature Precipitation Wind Pressure Humidity
    00:00 -22°C° 0 mm 1 mps 460 mmHg 96%
    01:00 -23°C° 0 mm 1 mps 459 mmHg 95%
    02:00 -23°C° 0 mm 1 mps 458 mmHg 95%
    03:00 -24°C° 0 mm 1 mps 458 mmHg 94%
    04:00 -24°C° 0 mm 1 mps 458 mmHg 93%
    05:00 -24°C° 0 mm 1 mps 458 mmHg 92%
    06:00 -24°C° 0 mm 1 mps 458 mmHg 91%
    07:00 -24°C° 0 mm 1 mps 458 mmHg 90%
    08:00 -24°C° 0 mm 1 mps 458 mmHg 89%
    09:00 -21°C° 0 mm 1 mps 460 mmHg 84%
    10:00 -19°C° 0 mm 1 mps 462 mmHg 79%
    11:00 -16°C° 0 mm 1 mps 463 mmHg 75%
    12:00 -15°C° 0 mm 1 mps 464 mmHg 74%
    13:00 -14°C° 0 mm 1 mps 464 mmHg 74%
    14:00 -13°C° 0 mm 1 mps 464 mmHg 73%
    15:00 -15°C° 0 mm 1 mps 463 mmHg 80%
    16:00 -17°C° 0 mm 1 mps 461 mmHg 87%
    17:00 -19°C° 0 mm 1 mps 460 mmHg 93%
    18:00 -20°C° 0 mm 1 mps 459 mmHg 89%
    19:00 -21°C° 0 mm 1 mps 459 mmHg 85%
    20:00 -22°C° 0 mm 1 mps 458 mmHg 81%
    21:00 -22°C° 0 mm 1 mps 458 mmHg 75%
    22:00 -22°C° 0 mm 1 mps 459 mmHg 70%
    23:00 -22°C° 0 mm 1 mps 459 mmHg 64%

    Day after tomorrow, 29 January, Wednesday

    Time Temperature Precipitation Wind Pressure Humidity
    00:00 -22°C° 0 mm 1 mps 459 mmHg 60%
    01:00 -21°C° 0 mm 1 mps 459 mmHg 56%
    02:00 -21°C° 0 mm 1 mps 459 mmHg 53%
    03:00 -21°C° 0 mm 1 mps 459 mmHg 51%
    04:00 -22°C° 0 mm 1 mps 458 mmHg 49%
    05:00 -22°C° 0 mm 0 mps 458 mmHg 46%
    06:00 -21°C° 0 mm 1 mps 459 mmHg 46%
    07:00 -20°C° 0 mm 1 mps 460 mmHg 45%
    08:00 -20°C° 0 mm 1 mps 460 mmHg 44%
    09:00 -17°C° 0 mm 1 mps 462 mmHg 46%
    10:00 -15°C° 0 mm 1 mps 464 mmHg 49%
    11:00 -12°C° 0 mm 1 mps 466 mmHg 52%
    12:00 -11°C° 0 mm 1 mps 467 mmHg 54%
    13:00 -10°C° 0 mm 1 mps 467 mmHg 56%
    14:00 -10°C° 0 mm 1 mps 467 mmHg 58%
    15:00 -11°C° 0 mm 1 mps 466 mmHg 66%
    16:00 -12°C° 0 mm 1 mps 466 mmHg 74%
    17:00 -13°C° 0 mm 1 mps 465 mmHg 82%
    18:00 -14°C° 0 mm 1 mps 464 mmHg 81%
    19:00 -15°C° 0 mm 1 mps 464 mmHg 80%
    20:00 -19°C° 0 mm 2 mps 463 mmHg 79%
    21:00 -19°C° 0 mm 2 mps 463 mmHg 76%
    22:00 -20°C° 0 mm 2 mps 462 mmHg 74%
    23:00 -21°C° 0 mm 2 mps 462 mmHg 71%

    30 January, Thursday

    Time Temperature Precipitation Wind Pressure Humidity
    00:00 -21°C° 0 mm 2 mps 462 mmHg 69%
    01:00 -21°C° 0 mm 2 mps 461 mmHg 67%
    02:00 -21°C° 0 mm 2 mps 461 mmHg 65%
    03:00 -21°C° 0 mm 2 mps 461 mmHg 63%
    04:00 -23°C° 0 mm 2 mps 461 mmHg 61%
    05:00 -23°C° 0 mm 2 mps 461 mmHg 59%
    06:00 -23°C° 0 mm 2 mps 461 mmHg 58%
    07:00 -21°C° 0 mm 2 mps 461 mmHg 58%
    08:00 -21°C° 0 mm 2 mps 461 mmHg 57%
    09:00 -18°C° 0 mm 2 mps 463 mmHg 57%
    10:00 -16°C° 0 mm 2 mps 465 mmHg 58%
    11:00 -13°C° 0 mm 2 mps 467 mmHg 59%
    12:00 -12°C° 0 mm 2 mps 467 mmHg 60%
    13:00 -10°C° 0 mm 2 mps 467 mmHg 61%
    14:00 -10°C° 0 mm 3 mps 467 mmHg 62%
    15:00 -13°C° 0 mm 3 mps 466 mmHg 68%
    16:00 -14°C° 0 mm 3 mps 466 mmHg 73%
    17:00 -14°C° 0 mm 2 mps 465 mmHg 79%
    18:00 -16°C° 0 mm 3 mps 464 mmHg 80%
    19:00 -18°C° 0 mm 3 mps 463 mmHg 82%
    20:00 -19°C° 0 mm 3 mps 463 mmHg 83%
    21:00 -19°C° 0 mm 3 mps 462 mmHg 83%
    22:00 -21°C° 0 mm 3 mps 462 mmHg 82%
    23:00 -21°C° 0 mm 3 mps 462 mmHg 81%

    31 January, Friday

    Time Temperature Precipitation Wind Pressure Humidity
    00:00 -19°C° 0 mm 2 mps 462 mmHg 81%
    01:00 -19°C° 0 mm 2 mps 462 mmHg 81%
    02:00 -19°C° 0 mm 2 mps 462 mmHg 82%
    03:00 -19°C° 0 mm 2 mps 462 mmHg 84%
    04:00 -17°C° 0 mm 1 mps 461 mmHg 87%
    05:00 -17°C° 0 mm 1 mps 461 mmHg 90%
    06:00 -17°C° 0 mm 1 mps 462 mmHg 89%
    07:00 -17°C° 0 mm 1 mps 462 mmHg 89%
    08:00 -17°C° 0 mm 1 mps 462 mmHg 88%
    09:00 -16°C° 0 mm 1 mps 463 mmHg 85%
    10:00 -14°C° 0 mm 1 mps 464 mmHg 81%
    11:00 -13°C° 0 mm 1 mps 465 mmHg 78%
    12:00 -12°C° 0.1 mm 1 mps 465 mmHg 78%
    13:00 -12°C° 0.1 mm 1 mps 465 mmHg 78%
    14:00 -11°C° 0.1 mm 1 mps 465 mmHg 79%
    15:00 -12°C° 0.1 mm 1 mps 465 mmHg 83%
    16:00 -13°C° 0.1 mm 1 mps 464 mmHg 87%
    17:00 -14°C° 0.1 mm 1 mps 463 mmHg 92%
    18:00 -16°C° 0 mm 1 mps 462 mmHg 92%
    19:00 -18°C° 0 mm 1 mps 461 mmHg 92%
    20:00 -19°C° 0 mm 1 mps 460 mmHg 92%
    21:00 -20°C° 0 mm 1 mps 460 mmHg 90%
    22:00 -20°C° 0 mm 1 mps 460 mmHg 87%
    23:00 -20°C° 0 mm 1 mps 460 mmHg 85%

    1 February, Saturday

    Time Temperature Precipitation Wind Pressure Humidity
    00:00 -20°C° 0 mm 1 mps 460 mmHg 81%
    01:00 -21°C° 0 mm 1 mps 460 mmHg 77%
    02:00 -21°C° 0 mm 1 mps 460 mmHg 73%
    03:00 -21°C° 0 mm 1 mps 460 mmHg 69%
    04:00 -21°C° 0 mm 1 mps 460 mmHg 64%
    05:00 -21°C° 0 mm 1 mps 460 mmHg 60%
    06:00 -21°C° 0 mm 1 mps 460 mmHg 55%
    07:00 -20°C° 0 mm 1 mps 461 mmHg 50%
    08:00 -20°C° 0 mm 1 mps 462 mmHg 46%
    09:00 -17°C° 0 mm 1 mps 463 mmHg 46%
    10:00 -14°C° 0 mm 1 mps 465 mmHg 46%
    11:00 -11°C° 0 mm 1 mps 467 mmHg 47%
    12:00 -10°C° 0 mm 1 mps 468 mmHg 48%
    13:00 -9°C° 0 mm 1 mps 468 mmHg 50%
    14:00 -8°C° 0 mm 1 mps 468 mmHg 51%
    15:00 -12°C° 0 mm 2 mps 467 mmHg 57%
    16:00 -13°C° 0 mm 2 mps 466 mmHg 62%
    17:00 -15°C° 0 mm 2 mps 465 mmHg 68%
    18:00 -16°C° 0 mm 2 mps 465 mmHg 62%
    19:00 -18°C° 0 mm 2 mps 464 mmHg 56%
    20:00 -19°C° 0 mm 2 mps 463 mmHg 49%
    21:00 -19°C° 0 mm 2 mps 463 mmHg 44%
    22:00 -20°C° 0 mm 2 mps 463 mmHg 38%
    23:00 -20°C° 0 mm 2 mps 463 mmHg 32%
    Show more